Regional Weather Roundup
Issued by NWS

Home | Current Version | Previous Version | Text Only | Print | Product List | Glossary Off
Versions: 1 2 3 4 5 6 7 8 9 10 11 12 13 14 15 16 17 18 19 20 21 22 23 24 25 26 27 28 29 30 31 32 33 34 35 36 37 38 39 40 41 42 43 44 45 46 47 48 49 50

000
ASUS43 KFSD 112010
RWRSD

WEATHER ROUNDUP FOR SOUTH DAKOTA
NATIONAL WEATHER SERVICE SIOUX FALLS SD
200 PM CST MON DEC 11 2017

NOTE: "FAIR" INDICATES FEW OR NO CLOUDS BELOW 12,000 FEET WITH NO
SIGNIFICANT WEATHER AND/OR OBSTRUCTIONS TO VISIBILITY.


SDZ001>005-009-010-012>017-112100-
NORTHWEST AND NORTH CENTRAL SOUTH DAKOTA

CITY           SKY/WX    TMP DP  RH WIND       PRES   REMARKS
BUFFALO          N/A     39  27  62 NW36G41   30.25R
FAITH            N/A     38  30  73 NW24G33   30.28R
MOBRIDGE       CLOUDY    39  28  64 N23G32    30.21R
$$

SDZ012>016-024>037-041>051-057-063-072>074-112100-
SOUTHWEST AND SOUTH CENTRAL SOUTH DAKOTA

CITY           SKY/WX    TMP DP  RH WIND       PRES   REMARKS
RAPID CTY ARPT CLOUDY    44  22  41 NW36G48   30.30R
PIERRE         LGT RAIN  36  35  96 NW21      30.25R
CUSTER         SUNNY     38   3  23 NW10G20   30.27R
ELLSWORTH AFB  CLOUDY    43  22  43 NW32G45   30.29S
PHILIP         CLOUDY    43  29  57 N30G37    30.29R
PINE RIDGE     CLOUDY    42  23  46 N15G22    30.31R
SPEARFISH      FAIR      37  19  48 NW23G31   30.36S
WINNER         CLOUDY    41  31  67 NW26G36   30.23R
$$

SDZ004>011-016>023-039-040-112100-
NORTHEAST SOUTH DAKOTA

CITY           SKY/WX    TMP DP  RH WIND       PRES   REMARKS
ABERDEEN       CLOUDY    31  24  75 N25G37    30.22R WCI  17
WATERTOWN      CLOUDY    28  23  81 N25G41    30.11R WCI  13
BROOKINGS      CLOUDY    31  26  82 N23G29    30.07R WCI  18
SISSETON         N/A     27  21  78 N25G36    30.15R WCI  12
$$

SDZ017-020-022-023-036>040-048>070-112100-
SOUTHEAST SOUTH DAKOTA

CITY           SKY/WX    TMP DP  RH WIND       PRES   REMARKS
SIOUX FALLS    CLOUDY    36  29  75 N30G38    30.07R
HURON          PTSUNNY   38  29  70 N28G35    30.16R
CHAMBERLAIN    CLOUDY    40  34  78 NW20G28   30.22R
MITCHELL       CLOUDY    39  31  72 N22G33    30.17R
YANKTON        CLOUDY    39  31  72 NW28G37   30.10R
$$

ABBREVIATIONS USED IN REMARKS
   TC - TEMPERATURE IN CELSIUS
  WCI - WIND CHILL INDEX
   HX - HEAT INDEX
  VSB - VISIBILITY





USA.gov is the U.S. government's official web portal to all federal, state and local government web resources and services.